If you wish to contribute or participate in the discussions about articles you are invited to join SKYbrary as a registered user

 Actions

Tallinn/Ulemiste

From SKYbrary Wiki

EETN
Airport
ICAO: EETN
Summary
Name Tallinn/Ulemiste
Region Europe
Territory Estonia EE.gif
Location Tallinn
Serving
Coordinates 59° 24' 59.48" N, 24° 47' 57.49" E
Runways
Designator Length Width Surface ROPS
8/26 3070 m10,072.178 ft
45 m147.638 ft
ASP yes/yes


METAR
Observation EETN 220420Z 19004KT CAVOK 07/M01 Q1026 NOSIG
Station Tallinn
Date/Time 22 April 2019 04:20:00
Wind direction 190°
Wind speed 04 kts
Lowest cloud amount clouds and visibility OK
Temperature 7°C
Dew point
Humidity 56%
QNH 1026 hPa
Weather condition n/a

Tallinn Airport

ICAO: EETN IATA: TLL

Description

International airport serving capital city of Estonia.

Climatology

Humid Continental climate (Köppen climate classification Dfb) - Variable weather patterns and a large seasonal temperature variance. Summers are often warm and humid with frequent thunderstorms and winters can be very cold with frequent snowfall and persistent snow cover.

Maps

Terrain

Loading map...

Airport Layout

Loading map...


Accidents & Serious Incidents at or in vicinity of EETN

None on SKYbrary